CAPE
4176 3519 2877 2864 2637 1972 2434 2607 1956 3369 2855 2749 2663 2721 2682 2469 2165 2023 2052 2308 2695 1975
3528 3864 3410 3409 3118 2801 2306 2191 2505 3457 3269 2991 2463 2694 2908 2339 2301 2493 2317 1694 1766 2077
3339 3469 3670 3692 3300 3215 3170 2975 2789 2824 2765 1830 2347 2364 2678 2784 2544 2829 2426 2061 1861 1813
2313 2347 2614 3052 3201 3156 2715 2735 2691 2727 2378 2710 2293 2203 2154 2502 2516 2333 2330 2087 1864 2121
2121 1808 1838 2074 2652 2636 2754 2859 2845 2275 2283 2356 2343 2622 2442 2473 2135 1917 2106 2460 1878 2210
1874 1872 1766 1635 1633 1834 1852 2298 2502 2695 2406 2710 2525 2489 2502 2463 2374 2182 2400 2129 2341 2287
923 1317 1735 771 1334 1452 1511 1597 1546 1429 2344 2811 2659 2509 2541 2625 2526 2288 2286 2312 2345 2190
940 1426 1804 1638 1778 1241 1530 1536 1862 1978 2093 1978 2403 2063 2412 2459 2566 2485 2526 2552 2392 2246
778 1151 1417 1428 1377 1565 1723 1821 1855 1678 1662 1470 1343 823 525 1313 3036 2715 2199 2485 2462 2375
423 677 846 985 1133 1263 1330 1442 1775 1796 1957 1877 1827 1128 751 522 842 2554 3132 2686 2220 2201
105 170 389 593 827 984 1325 1334 1415 1424 1364 1797 1899 1352 1075 1018 756 880 1943 2762 2735 2643
16 38 112 212 382 584 773 1179 1440 1598 1502 1608 1652 1541 1332 1080 1372 1497 1507 1957 2545 3043
57 54 29 34 69 403 724 1029 1286 1317 1687 1519 1550 1389 1408 965 1267 1262 1729 1884 1989 2269
59 55 24 9 15 284 488 799 1259 1621 1718 1871 1621 1639 1250 1179 919 1162 1211 1582 1864 2067
CIN
-2 -3 -2 -7 -11 -32 -36 -25 -33 -18 -26 -26 -21 -14 -25 -13 -15 -22 -21 -20 -21 -44
-11 -3 -2 -6 -13 -12 -20 -21 -36 -14 -27 -21 -28 -24 -11 -31 -13 -9 -14 -41 -43 -31
-15 -18 -6 -7 -7 -10 -13 -22 -28 -40 -27 -71 -23 -27 -19 -12 -3 -7 -3 -6 -22 -31
0 -2 -22 -13 -24 -23 -34 -26 -20 -16 -21 -20 -16 -23 -32 -18 -15 -12 -5 -12 -15 -18
0 0 0 -28 -23 -27 -10 -10 -12 -26 -26 -15 -20 -21 -12 -4 -17 -31 -15 -1 -29 -9
0 -2 0 -8 -9 -7 -21 -7 -14 -11 -18 -6 -5 -6 -7 -5 -3 -6 -6 -11 -6 -4
-28 -12 -14 -13 -26 -1 -11 -25 -57 -68 -31 -18 -18 -18 -12 -3 -4 -4 -3 -6 -6 -9
-3 -2 -1 -1 -2 -14 -7 -16 -5 -15 -20 -39 -13 -20 -29 -38 -19 -11 -3 -3 -4 -5
-3 -1 -1 -3 -2 -2 0 0 -1 -1 -4 -25 -48 -93 -85 -51 -9 -26 -27 -7 -7 -6
-48 -4 -2 -3 -3 -2 -2 -4 -1 -1 -1 -2 -5 -61 -99 -120 -98 -1 -2 -9 -19 -9
-82 -141 -36 -2 -1 -1 0 -1 -2 -4 -7 -2 -1 -5 -32 -37 -68 -68 -8 -2 -2 -6
-10 0 -246 -119 -23 -1 -1 0 0 -1 -3 -1 -5 -2 -8 -12 -15 -11 -27 -11 -4 -2
0 0 0 -387 -259 -47 0 0 0 -1 -2 -5 -11 -20 -12 -10 -8 -7 0 -2 -6 -5
0 0 0 0 -176 -149 -37 0 0 0 -1 -3 -16 -18 -20 -6 -19 -10 -7 -4 -2 -1
Wind_Speed
12 11 11 12 12 7 8 14 16 18 16 15 17 18 17 19 18 16 19 16 18 19
17 16 13 10 12 13 9 11 14 16 21 18 15 18 18 17 16 18 20 21 17 18
19 22 20 18 15 15 16 13 12 16 19 16 21 18 19 20 17 18 19 19 20 20
35 33 24 20 21 18 18 16 16 16 14 17 17 18 20 20 21 21 18 17 19 20
36 37 39 37 38 34 27 21 20 15 15 11 14 17 18 18 21 22 18 15 14 17
38 40 43 41 35 36 34 35 31 26 22 21 21 20 19 16 15 16 18 17 18 17
31 30 33 34 36 36 37 36 36 33 29 27 25 22 22 20 19 17 17 17 18 20
30 27 26 25 27 28 29 31 34 35 35 33 31 26 24 24 21 20 20 18 18 19
30 30 30 31 28 27 29 32 32 32 34 35 36 29 29 24 27 22 22 22 21 19
29 31 34 36 35 34 33 31 33 34 33 34 32 32 27 28 30 26 23 24 22 24
33 36 37 38 39 36 35 34 32 32 36 34 33 30 31 30 32 29 23 24 25 24
nan nan 33 35 37 36 36 35 35 34 35 36 33 32 34 38 40 31 27 26 24 24
nan nan nan nan nan 31 33 32 34 35 36 35 33 32 32 39 41 41 38 34 29 28
nan nan nan nan nan 28 31 32 31 31 32 30 30 33 36 39 41 43 46 44 39 36
Wind_Direction
5 347 341 344 336 342 286 288 274 287 292 290 288 284 275 273 277 276 273 273 270 268
335 337 334 318 313 311 311 294 287 279 286 281 274 283 281 279 278 275 276 282 276 269
313 315 315 311 312 287 290 282 278 292 283 272 291 287 287 284 291 278 264 261 270 272
273 270 278 298 293 302 292 285 278 281 292 293 294 285 281 289 286 296 270 259 260 273
278 276 269 269 267 274 273 268 265 256 265 280 285 287 288 282 286 294 299 281 281 273
283 277 274 268 267 268 270 271 272 276 277 270 272 276 273 277 284 287 282 281 276 270
279 275 283 276 272 267 264 266 267 267 266 269 272 282 272 276 273 277 280 283 282 282
269 271 269 274 275 278 277 270 263 259 259 259 261 265 275 268 267 271 274 276 281 288
271 270 268 264 265 271 272 268 268 265 258 255 250 241 245 255 253 257 263 268 268 273
270 266 269 269 270 271 273 268 265 259 263 260 260 259 244 241 244 241 250 258 263 266
258 255 258 260 265 268 268 269 270 262 252 255 254 259 259 248 243 236 234 245 253 262
nan nan 257 255 252 256 260 260 264 262 256 251 253 251 253 254 248 242 235 239 246 252
nan nan nan nan nan 262 260 260 264 258 257 253 250 250 255 254 253 245 239 236 239 252
nan nan nan nan nan 269 265 263 260 258 253 253 254 249 250 263 259 252 248 245 235 241